Location: Binningen
(47.7924°N, 8.7261°E)
Time: 04:48:13
(UTC+00:00)

Cosmos 1953 - Pass Details

Date: 17 May 2021
Orbit: 539 x 556 km, 82.5° (Epoch: 14 June)

Event Time Altitude Azimuth Distance (km) Brightness Sun altitude
Rises 23:38:31 0° 3° (N) 2,716 7.4 -22.5°
Reaches altitude 10° 23:41:11 10° 21° (NNE) 1,821 6.0 -22.5°
Maximum altitude 23:44:07 19° 69° (ENE) 1,320 4.5 -22.5°
Enters shadow 23:45:45 16° 100° (E) 1,489 4.5 -22.4°
